DB0TGO-13 Weather Reports


time (UTC)temp
F
wind
direction
speed
knots
gust
knots
rain 1hr
in
rain 24hr
in
rain mn
in
humidity
%
barometer
mb
20260902204509 58 210 0.0 0.0 0.00 0.00 0.00 81 1012.9
20260902203010 58 210 0.0 0.0 0.00 0.00 0.00 81 1012.9
20260902201509 62 210 0.0 0.0 0.00 0.00 0.00 73 1012.8
20260902200009 62 190 1.7 0.0 0.00 0.00 0.00 73 1012.8
20260902194510 62 190 1.7 0.0 0.00 0.00 0.00 73 1013.0
20260902193010 62 230 1.7 0.0 0.00 0.00 0.00 73 1013.0
20260902191509 65 230 1.7 0.0 0.00 0.00 0.00 67 1013.0
20260902190010 65 240 1.7 0.0 0.00 0.00 0.00 67 1013.0
20260902184511 66 240 1.7 0.0 0.00 0.00 0.00 63 1012.6
20260902183009 66 260 2.6 0.0 0.00 0.00 0.00 63 1012.6
20260902181509 66 290 3.5 0.0 0.00 0.00 0.00 63 1012.7
20260902180009 66 290 3.5 0.0 0.00 0.00 0.00 63 1012.7
20260902174509 68 290 4.3 0.0 0.00 0.00 0.00 60 1012.8
20260902173009 68 290 4.3 0.0 0.00 0.00 0.00 60 1012.8
20260902171511 70 290 4.3 0.0 0.00 0.00 0.00 52 1012.7
20260902170009 70 280 7.0 0.0 0.00 0.00 0.00 52 1012.7
20260902164510 71 230 4.3 0.0 0.00 0.00 0.00 50 1012.7
20260902163009 71 230 4.3 0.0 0.00 0.00 0.00 50 1012.7
20260902161510 72 230 4.3 0.0 0.00 0.00 0.00 47 1012.8
20260902160010 72 250 6.1 0.0 0.00 0.00 0.00 47 1012.8
20260902154509 72 210 4.3 0.0 0.00 0.00 0.00 47 1012.9
20260902153009 72 210 4.3 0.0 0.00 0.00 0.00 47 1012.9
20260902151509 72 210 4.3 0.0 0.00 0.00 0.00 48 1013.2
20260902150010 72 240 2.6 0.0 0.00 0.00 0.00 48 1013.2
20260902144510 70 220 4.3 0.0 0.00 0.00 0.00 50 1013.4
20260902143009 70 220 4.3 0.0 0.00 0.00 0.00 50 1013.4
20260902141510 73 220 4.3 0.0 0.00 0.00 0.00 47 1013.5
20260902140009 73 270 5.2 0.0 0.00 0.00 0.00 47 1013.5
20260902134509 71 270 5.2 0.0 0.00 0.00 0.00 47 1013.7
20260902133009 71 290 7.0 0.0 0.00 0.00 0.00 47 1013.7
20260902131509 70 290 7.0 0.0 0.00 0.00 0.00 49 1013.9
20260902130009 70 290 6.1 0.0 0.00 0.00 0.00 49 1013.9
20260902124509 70 290 6.1 0.0 0.00 0.00 0.00 51 1014.0
20260902123010 70 260 5.2 0.0 0.00 0.00 0.00 51 1014.0
20260902121510 69 260 5.2 0.0 0.00 0.00 0.00 50 1014.3
20260902120009 69 270 6.1 0.0 0.00 0.00 0.00 50 1014.3
20260902114509 69 270 7.0 0.0 0.00 0.00 0.00 52 1014.3
20260902113010 69 270 7.0 0.0 0.00 0.00 0.00 52 1014.3
20260902111509 69 270 7.0 0.0 0.00 0.00 0.00 50 1014.4
20260902110009 69 280 7.0 0.0 0.00 0.00 0.00 50 1014.4
20260902104509 68 280 6.1 0.0 0.00 0.00 0.00 55 1014.7
20260902103009 68 280 6.1 0.0 0.00 0.00 0.00 55 1014.7
20260902101510 67 280 6.1 0.0 0.00 0.00 0.00 56 1014.7
20260902100010 67 230 6.1 0.0 0.00 0.00 0.00 56 1014.7
20260902094510 66 260 5.2 0.0 0.00 0.00 0.00 61 1014.8
20260902093010 66 260 5.2 0.0 0.00 0.00 0.00 61 1014.8
20260902091509 65 270 4.3 0.0 0.00 0.00 0.00 63 1014.9
20260902090010 65 270 4.3 0.0 0.00 0.00 0.00 63 1014.9
20260902084510 65 240 5.2 0.0 0.00 0.00 0.00 64 1014.8
20260902083009 65 240 5.2 0.0 0.00 0.00 0.00 64 1014.8
20260902081510 64 230 3.5 0.0 0.00 0.00 0.00 68 1014.5
20260902080012 64 230 3.5 0.0 0.00 0.00 0.00 68 1014.5
20260902074510 62 230 3.5 0.0 0.00 0.00 0.00 75 1014.5
20260902073009 62 240 2.6 0.0 0.00 0.00 0.00 75 1014.5
20260902071509 60 240 2.6 0.0 0.00 0.00 0.00 79 1014.6
20260902070009 60 250 2.6 0.0 0.00 0.00 0.00 79 1014.6
20260902064509 59 250 2.6 0.0 0.00 0.00 0.00 82 1014.6
20260902063010 59 270 2.6 0.0 0.00 0.00 0.00 82 1014.6
20260902061509 58 270 2.6 0.0 0.00 0.00 0.00 85 1014.7
20260902060009 58 270 2.6 0.0 0.00 0.00 0.00 85 1014.7
20260902054510 57 270 2.6 0.0 0.00 0.00 0.00 87 1014.6
20260902053009 57 270 4.3 0.0 0.00 0.00 0.00 87 1014.6
20260902051509 56 270 4.3 0.0 0.00 0.00 0.00 90 1014.5
20260902050010 56 270 4.3 0.0 0.00 0.00 0.00 90 1014.5
20260902044509 53 280 2.6 0.0 0.00 0.00 0.00 97 1014.0
20260902043009 53 280 2.6 0.0 0.00 0.00 0.00 97 1014.0
20260902041509 54 280 2.6 0.0 0.00 0.00 0.00 98 1013.7
20260902040010 54 230 0.9 0.0 0.00 0.00 0.00 98 1013.7
20260902034509 53 250 1.7 0.0 0.00 0.00 0.00 93 1013.9
20260902033009 53 250 1.7 0.0 0.00 0.00 0.00 93 1013.9
20260902031510 57 250 2.6 0.0 0.00 0.00 0.00 89 1013.9
20260902030007 57 250 2.6 0.0 0.00 0.00 0.00 89 1013.9